Weather History for South Bend, IN

Change the Weather History Date:

Saturday, June 29, 2013

  Actual Average Record
Temperature  
Mean Temperature 69 °F 72 °F  
Max Temperature 77 °F 83 °F 102 °F (1934)
Min Temperature 61 °F 62 °F 43 °F (1923)
Degree Days  
Heating Degree Days 0 0  
Month to date heating degree days 37 43  
Since 1 June heating degree days 37 43  
Since 1 July heating degree days 6140 6297  
Cooling Degree Days 4 8  
Month to date cooling degree days 158 157  
Year to date cooling degree days 254 213  
Since 1 June cooling degree days 158 157  
Growing Degree Days 19 (Base 50)    
Moisture  
Dew Point 62 °F    
Average Humidity 77    
Maximum Humidity 93    
Minimum Humidity 60    
Precipitation  
Precipitation 0.21 in 0.11 in 2.27 in (1979)
Month to date precipitation 3.41 3.68  
Year to date precipitation 20.71 17.40  
Snow  
Snow 0.00 in - - ()
Month to date snowfall 0.0  
Since 1 June snowfall 0.0  
Snow Depth 0.00 in    
Sea Level Pressure  
Sea Level Pressure 29.63 in    
Wind  
Wind Speed 5 mph (North)    
Max Wind Speed 14 mph    
Max Gust Speed 23 mph    
Visibility 9 miles    
Events Rain , Thunderstorm    
T = Trace of Precipitation, MM = Missing Value Source: NWS Daily Summary

Daily Weather History Graph

Daily Weather History Graph

Search for Another Location

Airport:

Trip Planner

Search our weather history database for the weather conditions in past years. The results will help you decide how hot, cold, wet, or windy it might be!

Date:

Astronomy

Jun. 29, 2013 Rise Set
Actual Time 6:13 AM EDT 9:23 PM EDT
Civil Twilight 5:39 AM EDT 9:57 PM EDT
Nautical Twilight 4:55 AM EDT 10:41 PM EDT
Astronomical Twilight 4:03 AM EDT 11:33 PM EDT
Moon 12:46 AM EDT (6/29) 1:31 PM EDT (6/29)
Length of Visible Light 16h 18m
Length of Day
15h 10m
Waning Gibbous, 56% of the Moon is Illuminated
Jun 29
Waning Gibbous
Jun 30
Last Quarter
Jul 8
New
Jul 15
First Quarter
Jul 22
Full

Hourly Weather History & Observations

Time (EDT) Temp. Dew Point Humidity Pressure Visibility Wind Dir Wind Speed Gust Speed Precip Events Conditions
12:54 AM 64.9 °F 61.0 °F 87% 29.59 in 10.0 mi Calm Calm - N/A   Clear
1:54 AM 62.1 °F 60.1 °F 93% 29.59 in 10.0 mi WNW 4.6 mph - N/A   Clear
2:54 AM 62.1 °F 60.1 °F 93% 29.58 in 10.0 mi WNW 5.8 mph - N/A   Clear
3:54 AM 62.1 °F 59.0 °F 90% 29.57 in 10.0 mi Calm Calm - N/A   Clear
4:54 AM 62.1 °F 59.0 °F 90% 29.58 in 8.0 mi West 3.5 mph - N/A   Clear
5:06 AM 62.6 °F 59.0 °F 88% 29.60 in 7.0 mi Calm Calm - N/A   Scattered Clouds
5:16 AM 62.6 °F 60.8 °F 94% 29.60 in 8.0 mi West 3.5 mph - N/A   Mostly Cloudy
5:54 AM 63.0 °F 61.0 °F 93% 29.59 in 10.0 mi NNW 5.8 mph - N/A   Overcast
6:30 AM 62.6 °F 60.8 °F 94% 29.61 in 10.0 mi NW 4.6 mph - N/A   Overcast
6:54 AM 64.0 °F 60.1 °F 87% 29.60 in 10.0 mi NNW 5.8 mph - N/A   Overcast
7:54 AM 64.0 °F 60.1 °F 87% 29.60 in 10.0 mi NNW 4.6 mph - N/A   Overcast
8:54 AM 63.0 °F 61.0 °F 93% 29.61 in 7.0 mi North 6.9 mph - N/A   Overcast
9:32 AM 62.6 °F 60.8 °F 94% 29.63 in 5.0 mi Calm Calm - N/A   Overcast
9:54 AM 64.9 °F 61.0 °F 87% 29.62 in 6.0 mi Calm Calm - N/A   Overcast
10:35 AM 66.2 °F 62.6 °F 88% 29.63 in 8.0 mi Calm Calm - N/A   Overcast
10:46 AM 68.0 °F 62.6 °F 83% 29.63 in 9.0 mi NE 5.8 mph - N/A   Overcast
10:54 AM 68.0 °F 62.1 °F 81% 29.62 in 10.0 mi NE 4.6 mph - N/A   Overcast
11:50 AM 69.8 °F 62.6 °F 78% 29.63 in 10.0 mi NE 4.6 mph - N/A   Overcast
11:54 AM 70.0 °F 62.1 °F 76% 29.62 in 10.0 mi NE 5.8 mph - N/A   Overcast
12:54 PM 71.1 °F 62.1 °F 73% 29.62 in 10.0 mi NNE 6.9 mph - N/A   Overcast
1:27 PM 75.2 °F 62.6 °F 65% 29.63 in 10.0 mi East 4.6 mph - N/A   Mostly Cloudy
1:54 PM 75.0 °F 62.1 °F 64% 29.62 in 10.0 mi East 4.6 mph - N/A   Partly Cloudy
2:54 PM 75.9 °F 61.0 °F 60% 29.61 in 10.0 mi North 4.6 mph - N/A   Mostly Cloudy
3:30 PM 75.2 °F 62.6 °F 65% 29.62 in 10.0 mi NNW 15.0 mph - N/A   Mostly Cloudy
3:54 PM 72.0 °F 66.0 °F 81% 29.61 in 10.0 mi NNW 13.8 mph - 0.02 in   Mostly Cloudy
4:10 PM 71.6 °F 64.4 °F 78% 29.63 in 10.0 mi NNW 10.4 mph - 0.00 in   Mostly Cloudy
4:20 PM 69.8 °F 64.4 °F 83% 29.64 in 10.0 mi NNW 18.4 mph 23.0 mph 0.00 in Rain Light Rain
4:37 PM 69.8 °F 62.6 °F 78% 29.65 in 10.0 mi NNW 12.7 mph - 0.00 in Thunderstorm Thunderstorm
4:54 PM 69.1 °F 62.1 °F 78% 29.65 in 10.0 mi North 12.7 mph - 0.00 in Thunderstorm Thunderstorm
5:54 PM 68.0 °F 64.0 °F 87% 29.66 in 10.0 mi SW 3.5 mph - 0.00 in   Overcast
6:54 PM 68.0 °F 63.0 °F 84% 29.67 in 7.0 mi NNE 5.8 mph - 0.01 in Rain Rain
7:54 PM 66.9 °F 63.0 °F 87% 29.68 in 7.0 mi NNE 4.6 mph - 0.07 in Rain Light Rain
8:07 PM 66.2 °F 62.6 °F 88% 29.69 in 10.0 mi North 5.8 mph - 0.01 in Rain , Thunderstorm Light Rain
8:14 PM 66.2 °F 64.4 °F 94% 29.68 in 10.0 mi North 5.8 mph - 0.01 in Rain , Thunderstorm Light Thunderstorms and Rain
8:52 PM 66.2 °F 64.4 °F 94% 29.69 in 7.0 mi North 8.1 mph - 0.04 in Rain Light Rain
8:54 PM 66.0 °F 64.0 °F 93% 29.69 in 7.0 mi North 8.1 mph - 0.04 in Rain Light Rain
9:54 PM 64.9 °F 62.1 °F 90% 29.71 in 10.0 mi ENE 6.9 mph - 0.05 in Rain Light Rain
10:31 PM 64.4 °F 60.8 °F 88% 29.73 in 10.0 mi Calm Calm - 0.02 in Rain Light Rain
10:54 PM 64.0 °F 61.0 °F 90% 29.73 in 10.0 mi Calm Calm - 0.02 in   Overcast
11:54 PM 64.0 °F 61.0 °F 90% 29.73 in 10.0 mi NNE 4.6 mph - N/A   Overcast